This is the latest recevied weather packets stored in our database for station/object IK2ILW-4. If no packets are shown the sender has not sent any weather packets the latest 10 day(s).
| Time | Temp. | Humidity | Pressure | Rain* | Wind** | Luminosity | Snow |
|---|---|---|---|---|---|---|---|
| 1777529881 | 5.56° C | 95% | 1020.6 hPa | 1.02 mm | - | 120 W/m² | - |
| 1777529568 | 5.56° C | 94% | 1020.7 hPa | 1.02 mm | - | 93 W/m² | - |
| 1777529284 | 5° C | 94% | 1020.7 hPa | 0.76 mm | - | 72 W/m² | - |
| 1777528968 | 5.56° C | 94% | 1020.7 hPa | 0.76 mm | - | 47 W/m² | - |
| 1777528654 | 5.56° C | 93% | 1020.5 hPa | 0.76 mm | - | 42 W/m² | - |
| 1777528373 | 5.56° C | 92% | 1020.5 hPa | 0.76 mm | - | 37 W/m² | - |
| 1777528059 | 5.56° C | 92% | 1020.5 hPa | 0.76 mm | - | 32 W/m² | - |
| 1777527779 | 5° C | 91% | 1020.4 hPa | 0.76 mm | - | 33 W/m² | - |
| 1777527466 | 5° C | 93% | 1020.4 hPa | 0.76 mm | - | 30 W/m² | - |
| 1777527182 | 5° C | 93% | 1020.4 hPa | 0.76 mm | - | 23 W/m² | - |
| 1777526866 | 5° C | 93% | 1020.2 hPa | 0.51 mm | - | 28 W/m² | - |
| 1777526558 | 5° C | 93% | 1020.2 hPa | 0.51 mm | - | 19 W/m² | - |
| 1777526274 | 5.56° C | 93% | 1020.2 hPa | 0.51 mm | - | 19 W/m² | - |
| 1777525959 | 5.56° C | 92% | 1020 hPa | 0.51 mm | - | 19 W/m² | - |
| 1777525659 | 5.56° C | 91% | 1020 hPa | 0.51 mm | - | 16 W/m² | - |
| 1777525377 | 5.56° C | 90% | 1020 hPa | 0.51 mm | - | 12 W/m² | - |
| 1777525063 | 5.56° C | 89% | 1019.8 hPa | 0.51 mm | - | 9 W/m² | - |
| 1777524781 | 6.11° C | 84% | 1019.8 hPa | 0.51 mm | - | 9 W/m² | - |
| 1777524471 | 5.56° C | 85% | 1019.8 hPa | 0.51 mm | - | 7 W/m² | - |
| 1777524156 | 5.56° C | 83% | 1019.6 hPa | 0.51 mm | - | 5 W/m² | - |
| 1777523872 | 5.56° C | 85% | 1019.6 hPa | 0.51 mm | - | 5 W/m² | - |
| 1777523557 | 6.11° C | 85% | 1019.6 hPa | 0.51 mm | - | 0 W/m² | - |
| 1777523273 | 6.11° C | 86% | 1019.6 hPa | 0.51 mm | - | 0 W/m² | - |
| 1777522959 | 6.11° C | 85% | 1019.6 hPa | 0.51 mm | - | 0 W/m² | - |
| 1777522675 | 5.56° C | 86% | 1019.6 hPa | 0.51 mm | - | 0 W/m² | - |
* Rain since midnight (hover to see other rain measurements)
** Current wind speed in m/s (hover to see current wind gust speed)